Location: Bílinka
(49.3579°N, 14.3767°E)
Time: 22:08:48
(UTC+00:00)

Cosmos 2369 Rocket - Pass Details

Date: 28 January 2023
Orbit: 829 x 852 km, 71.0° (Epoch: 28 March)

Event Time Altitude Azimuth Distance (km) Brightness Sun altitude
Rises 16:28:35 0° 281° (W) 3,383 6.5 -6.4°
Reaches altitude 10° 16:32:52 10° 312° (NW) 2,448 5.0 -7.0°
Maximum altitude 16:34:57 12° 334° (NNW) 2,309 4.6 -7.3°
Drops below altitude 10° 16:37:01 10° 356° (N) 2,447 4.5 -7.6°
Sets 16:41:18 0° 27° (NNE) 3,382 4.9 -8.3°
Enters shadow 16:41:26 - 28° (NNE) 3,416 4.9 -8.3°
